Location: Azul
(36.7830°S, 59.8500°W)
Time: 20:46:18
(UTC-03:00)

RS-44 - Pass Details

Date: 17 September 2024
Orbit: 1174 x 1511 km, 82.5° (Epoch: 11 October)

Event Time Altitude Azimuth Distance (km) Brightness Sun altitude
Rises 03:30:18 0° 187° (S) 4,400 ? -40.0°
Reaches altitude 10° 03:33:02 10° 186° (S) 3,465 ? -39.5°
Enters shadow 03:39:33 61° 181° (S) 1,612 ? -38.4°
